Location: Bramevaque
(42.9773°N, 0.5757°E)
Time: 10:09:41
(UTC+00:00)

DELTA 2 R/B (1) - Pass Details

Date: 15 May 2026
Orbit: 786 x 800 km, 39.6° (Epoch: 5 June)

Event Time Altitude Azimuth Distance (km) Brightness Sun altitude
Rises 20:42:02 0° 267° (W) 3,290 7.5 -13.9°
Reaches altitude 10° 20:44:33 10° 264° (W) 2,358 6.6 -14.2°
Maximum altitude 20:50:02 61° 185° (S) 893 3.6 -15.0°
Enters shadow 20:53:41 21° 111° (ESE) 1,711 4.8 -15.4°
